Subic Bay, Philippines

7:58 AM +08 on April 25, 2018 (GMT +0800)
Subic Bay International

Weather History for RPLB - August, 2013

Change the Weather History Date:

Saturday, August 10, 2013

  Actual Average Record
Temperature  
Mean Temperature 85 °F -  
Max Temperature 93 °F 84 °F 93 °F (2013)
Min Temperature 77 °F 74 °F 74 °F (2016)
Cooling Degree Days 20    
Growing Degree Days 35 (Base 50)    
Moisture  
Dew Point 75 °F    
Average Humidity 78    
Maximum Humidity 89    
Minimum Humidity 48    
Precipitation  
Precipitation 0.00 in - - ()
Sea Level Pressure  
Sea Level Pressure 29.74 in    
Wind  
Wind Speed 5 mph ()    
Max Wind Speed 18 mph    
Max Gust Speed -    
Visibility 7.5 miles    
Events Thunderstorm    
Averages and records for this station are not official NWS values.
T = Trace of Precipitation, MM = Missing Value Source: Averaged Metar Reports

Daily Weather History Graph

Daily Weather History Graph

Search for Another Location

Airport or City:

Astronomy

Aug. 10, 2013 Rise Set
Actual Time 5:43 AM +08 6:24 PM +08
Civil Twilight 5:21 AM +08 6:46 PM +08
Nautical Twilight 4:55 AM +08 7:13 PM +08
Astronomical Twilight 4:28 AM +08 7:39 PM +08
Moon 8:14 AM +08 (8/10) 8:32 PM +08 (8/10)
Length of Visible Light 13h 25m
Length of Day
12h 40m
Waxing Crescent, 10% of the Moon is Illuminated
Aug 10
Waxing Crescent
Aug 14
First Quarter
Aug 21
Full
Aug 28
Last Quarter
Sep 5
New

Hourly Weather History & Observations

Time (+08) Temp. Heat Index Dew Point Humidity Pressure Visibility Wind Dir Wind Speed Gust Speed Precip Events Conditions
12:00 AM 78.8 °F - 75.2 °F 89% 29.77 in 6.2 mi NE 4.6 mph - N/A   Partly Cloudy
2:00 AM 78 °F - 75 °F 88% 29.74 in 11 mi Calm Calm - -   Haze
2:00 AM 78.8 °F - 75.2 °F 89% 29.74 in 6.2 mi Calm Calm - N/A   Partly Cloudy
5:00 AM 78 °F - 75 °F 88% 29.73 in 11 mi 4.5 mph - -   Haze
5:00 AM 78.8 °F - 75.2 °F 89% 29.71 in 6.2 mi ENE 3.5 mph - N/A   Partly Cloudy
6:00 AM 80.6 °F 85.4 °F 73.4 °F 79% 29.74 in 6.2 mi East 4.6 mph - N/A   Overcast
7:00 AM 80.6 °F 86.2 °F 75.2 °F 84% 29.74 in 6.2 mi NE 8.1 mph - N/A   Overcast
8:00 AM 81 °F - 75 °F 78% 29.75 in 12 mi ESE 4.5 mph - -   Haze
8:00 AM - - - N/A% 29.74 in 6.2 mi ESE 4.6 mph - N/A   Overcast
9:00 AM 82.4 °F 87.2 °F 71.6 °F 70% 29.77 in 6.2 mi East 10.4 mph - N/A   Overcast
10:00 AM 86.0 °F 95.1 °F 75.2 °F 70% 29.77 in 6.2 mi East 10.4 mph - N/A   Mostly Cloudy
11:00 AM 87.8 °F 97.6 °F 75.2 °F 66% 29.74 in 6.2 mi East 10.4 mph - N/A   Mostly Cloudy
12:00 PM 87.8 °F 97.6 °F 75.2 °F 66% 29.74 in 6.2 mi ENE 12.7 mph - N/A   Mostly Cloudy
1:00 PM 91.4 °F 105.1 °F 77.0 °F 63% 29.71 in 6.2 mi ENE 10.4 mph - N/A   Mostly Cloudy
2:00 PM 94 °F - 76 °F 48% 29.72 in 12 mi SW 6.7 mph - -   Haze
2:00 PM 93.2 °F 107.2 °F 77.0 °F 59% 29.71 in 6.2 mi SW 6.9 mph - N/A   Mostly Cloudy
3:00 PM 91.4 °F 107.2 °F 78.8 °F 66% 29.68 in 6.2 mi SW 8.1 mph - N/A   Mostly Cloudy
4:00 PM 89.6 °F 108.2 °F 80.6 °F 75% 29.68 in 6.2 mi SW 10.4 mph - N/A   Mostly Cloudy
5:00 PM 80 °F - 74 °F 77% 29.73 in 11 mi SSE 17.9 mph - - Thunderstorm Thunderstorm
5:00 PM 78.8 °F - 73.4 °F 83% 29.71 in 6.2 mi SSE 17.3 mph - N/A Thunderstorm Thunderstorm
6:00 PM 78.8 °F - 73.4 °F 83% - 6.2 mi South 5.8 mph - N/A Thunderstorm Thunderstorm
7:00 PM 78.8 °F - 73.4 °F 83% 29.74 in 6.2 mi ENE 1.2 mph - N/A   Overcast
8:00 PM 79 °F - 74 °F 81% 29.77 in 11 mi ENE 2.2 mph - - Thunderstorm Light Thunderstorm
8:00 PM 78.8 °F - 75.2 °F 89% 29.77 in 6.2 mi ENE 2.3 mph - N/A   Partly Cloudy
9:00 PM 78.8 °F - 75.2 °F 89% 29.77 in 6.2 mi ENE 3.5 mph - N/A   Partly Cloudy
11:00 PM 79 °F - 74 °F 82% 29.79 in 11 mi ENE 4.5 mph - -   Scattered Clouds
11:00 PM 78.8 °F - 75.2 °F 89% 29.77 in 6.2 mi ENE 4.6 mph - N/A   Partly Cloudy